Location: Newark
(42.0700°N, 88.0492°W)
Time: 06:00:22
(UTC+00:00)

ISS - Pass Details

Date: 26 September 2019
Orbit: 411 x 421 km, 51.6° (Epoch: 17 October)

Event Time Altitude Azimuth Distance (km) Brightness Sun altitude
Rises 00:44:04 0° 271° (W) 2,340 2.0 -11.9°
Reaches altitude 10° 00:46:26 10° 286° (WNW) 1,479 0.5 -12.3°
Maximum altitude 00:49:10 23° 342° (NNW) 923 -1.7 -12.8°
Drops below altitude 10° 00:51:55 10° 37° (NE) 1,482 -1.2 -13.3°
Enters shadow 00:52:18 - 41° (NE) 1,616 -1.1 -13.4°
